Regional Weather Roundup
Issued by NWS

Home | Current Version | Previous Version | Text Only | Print | Product List | Glossary On
Versions: 1 2 3 4 5 6 7 8 9 10 11 12 13 14 15 16 17 18 19 20 21 22 23 24 25 26 27 28 29 30 31 32 33 34 35 36 37 38 39 40 41 42 43 44 45 46 47 48 49 50
051
ASPQ40 PGUM 240712
RWRPQ
WEATHER ROUNDUP FOR THE MARIANAS AND MICRONESIA
NATIONAL WEATHER SERVICE TIYAN GU
500 PM CHST MON APR 24 2017

GUZ001>004-240800-
MARIANA ISLANDS-

CITY           SKY/WX    TMP DP  RH WIND       PRES   REMARKS
GUAM AIRPORT   LGT RAIN  79  79 100 SE8       29.88R FOG
ANDERSEN AFB   LGT RAIN  77  75  94 SE12      29.89R
ROTA AIRPORT   CLOUDY    81  73  78 SE15      29.87S
TINIAN AP      PTSUNNY   82  75  78 E9        29.84S
SAIPAN AP      MOSUNNY   82  77  83 E14       29.87R HX  91

$$

PMZ161-240800-
REPUBLIC OF PALAU-

CITY           SKY/WX    TMP DP  RH WIND       PRES   REMARKS
KOROR AP       HVY RAIN  79  77  94 CALM      29.74F
KOROR WSO      CLOUDY    86  75  70 NW8       29.76S HX  95

$$

PMZ171>174-240800-
FEDERATED STATES OF MICRONESIA-

CITY           SKY/WX    TMP DP  RH WIND       PRES   REMARKS
YAP AIRPORT    MOSUNNY   84  77  79 VRB6      29.71S HX  94
CHUUK AP       CLOUDY   102  75  42 VRB6      29.77R HX 116
POHNPEI AP     NOT AVBL
POHNPEI WSO    MOCLDY    82  77  83 E5        29.84R HX  91
KOSRAE AP      NOT AVBL

$$

PMZ181-240800-
REPUBLIC OF THE MARSHALL ISLANDS-

CITY           SKY/WX    TMP DP  RH WIND       PRES   REMARKS
KWAJALEIN AP   PTCLDY    82  73  74 NE9       29.85R
MAJURO AP      MOCLDY    82  75  78 NE13      29.85R
MAJURO WSO     MOCLDY    81  75  83 E9        29.84S

$$





USA.gov is the U.S. government's official web portal to all federal, state and local government web resources and services.